SL-16 DEB, 22615

Orbit data source: Space-Track

SL-16 DEB, 22615 is space debris in LEO originally from a launch on Fri, 26 Mar 1993 UTC launched from the Tyuratam Missile And Space Complex (TTMTR). Debris objects in space refer to the collection of defunct objects orbiting the Earth. Examples of debris include non-operational satellites, rocket bodies, and fragments generated from explosions, collisions, or faulty payload assembly.

Loading next visibility...
Identifier
22615, 1993-016Z
Orbit
LEO
Country
Flag of CISCIS
Related business
Manufacturer
Unknown
Mission
Spacecraft
Bus & Motor
Unknown
Mass
Unknown
Launch date (UTC)
1993-03-26 (33 years ago)
Launch vehicle
Unknown
Launch site
Tyuratam Missile And Space Complex (TTMTR)
Object type
Payload
Rocket body
Debris
Shape & HBR
Unknown shape, 0.1 m
Radar Cross Section
Small (<0.1 m²)

Expand to show TLE details & history
Last TLE update: 18 hours ago

TLE from 18 hours ago
0 SL-16 DEB
1 22615U 93016Z   25341.14747212  .00001088  00000-0  79812-3 0  9995
2 22615  71.0017 100.0314 0129475  41.8087  22.5801 13.94046325654807
Epoch: 2025-12-07T03:32Z
TLE epoch observation values (Epoch: 2025-12-07T03:32:21.591Z)
Latitude
59.05965°
Longitude
5.61809°
Altitude
836.932 km
Speed
7.485 km/s
True Right ascension
08h 59m 29s
True Declination
58° 54' 34"
Sunlit
Object was in full shadow at epoch
Visualization orbit readout
Latitude
Unknown
Longitude
Unknown
Altitude
Unknown
Speed
Unknown
Apparent Right ascension
Unknown
Apparent Declination
Unknown
Sunlit
N/A
Visualization observer readout
Local Sidereal Time
19:10:27
Azimuth
Unknown
Elevation
Unknown
Doppler factor
Unknown
Orbital elements
Apogee altitude
1,006.824 km
Perigee altitude
818.035 km
Semi-major axis
7,290.567 km
Eccentricity
0.01295
Inclination
71.0017°
RAAN
100.0314°
Arg. of periapsis
41.8087°
True anomaly
23.15842°
Mean anomaly
22.5801°
Eccentric anomaly
22.86839°
Mean motion
3.48659 °/min
Orbital period
103.25 mins
BSTAR
0.00079812
Loading maneuver chart data...
Computing Atmospheric mass density...
Loading historical data...
Loading historical data...
Loading historical data...
Loading historical data...
Loading historical data...
Loading historical data...
Loading historical data...

Documentation

Showing up to 5 results
|